[[{"header":{"parameterUnit":"m.s-1","parameterCategory":1,"la1":30.2991,"la2":30.254,"lo1":-89.0895,"lo2":-89.0444,"dy":0.0017,"dx":0.0017,"nx":28,"ny":28,"refTime":"2025-04-09T09:00:00:Z","depth":0,"parameterNumber":2,"parameterNumberName":"U-component_of_WINDS"},"data":[0,0,0,0,0,0,0,0,0,0,0,0,0,0,0,0,0,0,0,0,0,0,0,0,0,0,0,0,0,0,0,0,0,0,0,0,0,0,0,0,0,0,0,0,0,0,0,0,0,0,0,0,0,0,0,0,0,0,-0.0104,-0.0104,0,-0.0059,-0.0058,-0.0058,0.0023,0.0025,0.0026,0.0028,0.0073,0.0073,0.0073,0,0,0,0,0,0,0,0,0,0,0,0,0,-0.0124,-0.0124,-0.0104,-0.0104,-0.0103,-0.0059,-0.0058,-0.0058,0.0023,0.0025,0.0027,0.0029,0.0073,0.0073,0.0073,0,0,0,0,0,0,0,0,0,0,0,0,0,-0.0101,-0.0124,-0.0105,-0.0058,-0.0053,-0.0059,-0.0058,-0.0057,0.0023,0.0025,0.0027,0.0029,0.0073,0.0073,0.0073,0.0024,0,0,0.0072,0.0071,0,0,0,0,0,0,0,0,-0.0102,-0.01,-0.0065,-0.0061,-0.0056,-0.0021,-0.0048,-0.003,0.0022,-0.0006,0.0028,0.0031,0.004,0.0042,0.0046,0.0026,0.0028,0.0072,0.0071,0.0071,0.0071,0,0,0,0,0,0,0,-0.0104,-0.0102,-0.0086,-0.0065,-0.0059,-0.004,-0.0034,-0.0045,0.0003,-0.0003,0.0003,0.0007,0.0043,0.0046,0.0048,0.0029,0.0072,0.0071,0.0071,0.0071,-0.0029,-0.0031,0,0,0,0,0,0,-0.0112,-0.0103,-0.0088,-0.0085,-0.0074,-0.0041,-0.0035,-0.0035,0.0004,0.0012,0.0005,0.0011,0.0045,0.0048,0.0049,-0.0005,0.0071,0.0071,0.0071,-0.0027,-0.003,-0.0032,0,0,0,0,0,0,-0.0113,-0.0111,-0.009,-0.0093,-0.0088,-0.0043,-0.0044,-0.0035,-0.0031,0.001,0.0019,-0.0001,0.0047,0.005,0.003,-0.0003,0.0071,0.007,-0.0024,-0.0027,-0.0031,-0.0115,0,0,0,0,0,0,-0.0114,-0.0112,-0.013,-0.0094,-0.0088,-0.011,-0.0046,-0.0036,-0.0032,-0.0024,0.0007,0.0015,0.0049,0.003,0.0029,-0.0002,0.007,-0.0021,-0.0025,-0.003,-0.0109,-0.0121,-0.0132,0,0,0,0,0,-0.0115,-0.0155,-0.0131,-0.0129,-0.0109,-0.0112,-0.0109,-0.0068,-0.0035,-0.0053,-0.0026,0.0014,0.0001,0.0027,0.0027,-0.0005,-0.0018,-0.0024,-0.0029,-0.0104,-0.0119,-0.0131,0,0,0,0,0,0,-0.0197,-0.015,-0.0122,-0.0152,-0.0137,-0.0098,-0.0119,-0.0084,-0.0078,-0.0071,-0.002,-0.0014,-0.0041,-0.0025,0.0004,-0.005,-0.0003,-0.0008,-0.006,-0.0073,-0.0084,-0.0088,0.007,0,0,0,0,0,-0.0218,-0.0224,-0.0182,-0.0213,-0.0206,-0.0164,-0.0164,-0.0133,-0.0115,-0.0109,-0.0083,-0.0068,-0.0068,-0.007,-0.0068,-0.0107,-0.0099,-0.0128,-0.014,-0.0149,-0.0155,-0.0175,-0.0188,-0.005,-0.005,-0.005,0,0,-0.0263,-0.0238,-0.0244,-0.0229,-0.0213,-0.0221,-0.0159,-0.0169,-0.0175,-0.011,-0.0128,-0.0109,-0.0088,-0.0118,-0.013,-0.0106,-0.0191,-0.0156,-0.0164,-0.0164,-0.0182,-0.0195,-0.0207,-0.0054,-0.0053,-0.0053,0,0,-0.0348,-0.0329,-0.0353,-0.0339,-0.0316,-0.0287,-0.0293,-0.026,-0.0245,-0.0262,-0.0214,-0.022,-0.0221,-0.0209,-0.0203,-0.0285,-0.0248,-0.0285,-0.0344,-0.0364,-0.0375,-0.0384,-0.0414,-0.0426,-0.0291,-0.0291,-0.0292,0,-0.0407,-0.0415,-0.037,-0.0383,-0.0378,-0.032,-0.0344,-0.0332,-0.0311,-0.0309,-0.0281,-0.0283,-0.0265,-0.0291,-0.0312,-0.0308,-0.0314,-0.0289,-0.0377,-0.0386,-0.0394,-0.0422,-0.0433,-0.0296,-0.0296,-0.0295,-0.0295,0,-0.0489,-0.0496,-0.0518,-0.0497,-0.0495,-0.0514,-0.0472,-0.0475,-0.0445,-0.0421,-0.0439,-0.0415,-0.0408,-0.0412,-0.0383,-0.0435,-0.0421,-0.0386,-0.0337,-0.0413,-0.0438,-0.0449,-0.0303,-0.0301,-0.03,-0.0299,0,0,-0.0624,-0.0579,-0.0588,-0.0578,-0.0549,-0.0554,-0.0571,-0.0563,-0.0567,-0.0554,-0.0568,-0.0571,-0.0539,-0.0532,-0.0501,-0.0519,-0.0587,-0.0482,-0.0481,-0.0503,-0.0644,-0.0671,-0.0684,-0.0562,-0.0564,-0.0565,-0.0646,0,-0.0703,-0.0728,-0.0689,-0.0724,-0.073,-0.0675,-0.069,-0.0674,-0.0652,-0.0654,-0.0629,-0.0633,-0.0589,-0.0585,-0.06,-0.0575,-0.0614,-0.0569,-0.0575,-0.0576,-0.0583,-0.0697,-0.0725,-0.0802,-0.0655,-0.0657,-0.0658,0,-0.0799,-0.0791,-0.0826,-0.0796,-0.0797,-0.0811,-0.0801,-0.0804,-0.0786,-0.0768,-0.0761,-0.0725,-0.074,-0.0693,-0.0714,-0.0684,-0.0684,-0.0672,-0.0674,-0.0674,-0.0622,-0.07,-0.0826,-0.0838,-0.0673,-0.0672,-0.0671,0,-0.0895,-0.0893,-0.0914,-0.0907,-0.0872,-0.0883,-0.0869,-0.0848,-0.0847,-0.0839,-0.0837,-0.0831,-0.0829,-0.0825,-0.0789,-0.0758,-0.0815,-0.0764,-0.0801,-0.0802,-0.0816,-0.0816,-0.0944,-0.0815,-0.0815,-0.0815,-0.0815,0,-0.0988,-0.1012,-0.0956,-0.097,-0.0996,-0.095,-0.0977,-0.0957,-0.0939,-0.0949,-0.0901,-0.0911,-0.0861,-0.0866,-0.0837,-0.086,-0.0859,-0.0846,-0.0838,-0.085,-0.0852,-0.085,-0.0844,-0.0818,-0.0817,-0.0817,-0.0816,0,-0.11,-0.1063,-0.1083,-0.1048,-0.104,-0.106,-0.1031,-0.1042,-0.1017,-0.1029,-0.1029,-0.099,-0.0993,-0.0956,-0.0952,-0.0933,-0.0969,-0.0951,-0.0975,-0.097,-0.1009,-0.1006,-0.1141,-0.1157,-0.1018,-0.1019,-0.1021,0,-0.1162,-0.1179,-0.1146,-0.1148,-0.1137,-0.1141,-0.1139,-0.1096,-0.1096,-0.1077,-0.1091,-0.109,-0.1087,-0.1095,-0.1066,-0.1063,-0.1046,-0.1093,-0.1045,-0.1058,-0.1048,-0.1047,-0.1049,-0.1104,-0.1105,-0.1107,-0.1108,0,-0.1276,-0.1257,-0.1256,-0.1249,-0.1248,-0.1241,-0.1231,-0.1236,-0.1188,-0.1191,-0.1193,-0.1191,-0.1187,-0.1188,-0.118,-0.1166,-0.113,-0.1123,-0.1132,-0.1145,-0.1159,-0.1153,-0.1003,-0.1121,-0.1119,-0.1118,-0.1118,-0.1117,-0.1365,-0.1378,-0.1357,-0.1358,-0.1345,-0.1337,-0.1346,-0.1322,-0.1323,-0.1316,-0.1291,-0.1298,-0.128,-0.1265,-0.1255,-0.1261,-0.1238,-0.125,-0.1253,-0.1257,-0.1265,-0.1157,-0.1259,-0.1259,-0.1258,-0.1258,-0.1258,0,-0.1477,-0.1461,-0.1462,-0.1449,-0.145,-0.1416,-0.1403,-0.1406,-0.1413,-0.1399,-0.1397,-0.1401,-0.1401,-0.1373,-0.137,-0.1381,-0.1364,-0.1381,-0.1381,-0.1378,-0.1285,-0.1279,-0.1395,-0.1395,-0.1395,-0.1395,-0.1395,-0.1395,-0.1536,-0.1557,-0.1536,-0.1551,-0.1534,-0.1541,-0.1537,-0.1529,-0.1518,-0.1524,-0.1524,-0.1505,-0.1486,-0.1482,-0.1481,-0.1473,-0.1474,-0.1498,-0.1484,-0.1398,-0.1385,-0.1372,-0.1365,-0.1498,-0.1498,-0.1576,-0.1577,-0.1578]},{"header":{"parameterUnit":"m.s-1","parameterCategory":1,"la1":30.2991,"la2":30.254,"lo1":-89.0895,"lo2":-89.0444,"dy":0.0017,"dx":0.0017,"nx":28,"ny":28,"refTime":"2025-04-09T09:00:00:Z","depth":0,"parameterNumber":3,"parameterNumberName":"V-component_of_WINDS"},"data":[0,0,0,0,0,0,0,0,0,0,0,0,0,0,0,0,0,0,0,0,0,0,0,0,0,0,0,0,0,0,0,0,0,0,0,0,0,0,0,0,0,0,0,0,0,0,0,0,0,0,0,0,0,0,0,0,0,0,0.1306,0.1306,0,0.1323,0.1323,0.1323,0.1332,0.1332,0.1332,0.1332,0.1349,0.1349,0.135,0,0,0,0,0,0,0,0,0,0,0,0,0,0.1279,0.1279,0.1306,0.1306,0.1306,0.1323,0.1323,0.1323,0.1332,0.1332,0.1332,0.1332,0.1349,0.1349,0.135,0,0,0,0,0,0,0,0,0,0,0,0,0,0.1293,0.1279,0.1306,0.1312,0.1313,0.1323,0.1323,0.1324,0.1332,0.1332,0.1332,0.1332,0.1349,0.1349,0.135,0.1354,0,0,0.1352,0.1352,0,0,0,0,0,0,0,0,0.1292,0.1294,0.1311,0.1312,0.1313,0.1325,0.132,0.1334,0.1332,0.1325,0.1332,0.1332,0.1341,0.1342,0.1345,0.1355,0.1356,0.1352,0.1352,0.1353,0.1353,0,0,0,0,0,0,0,0.1291,0.1293,0.1313,0.1312,0.1313,0.1314,0.1316,0.1322,0.1333,0.1325,0.1326,0.1328,0.1341,0.1345,0.1346,0.1356,0.1352,0.1353,0.1353,0.1353,0.1367,0.1367,0,0,0,0,0,0,0.1289,0.1292,0.1312,0.1313,0.1302,0.1315,0.1317,0.1321,0.1333,0.1334,0.1328,0.1328,0.1344,0.1345,0.1347,0.1351,0.1353,0.1353,0.1354,0.1367,0.1367,0.1367,0,0,0,0,0,0,0.1288,0.1291,0.1311,0.1303,0.1305,0.1315,0.132,0.1322,0.1325,0.1335,0.1336,0.133,0.1344,0.1346,0.1352,0.1352,0.1354,0.1354,0.1367,0.1367,0.1367,0.1361,0,0,0,0,0,0,0.1287,0.129,0.1293,0.1303,0.1306,0.1317,0.132,0.1322,0.1326,0.1327,0.1337,0.1338,0.1344,0.1351,0.1352,0.1353,0.1355,0.1367,0.1367,0.1367,0.1361,0.136,0.136,0,0,0,0,0,0.1286,0.129,0.1293,0.1295,0.1309,0.1317,0.1319,0.1325,0.1326,0.1328,0.1334,0.1338,0.1351,0.1351,0.1353,0.1354,0.1368,0.1367,0.1367,0.1361,0.136,0.136,0,0,0,0,0,0,0.128,0.1292,0.1295,0.1302,0.1308,0.1318,0.1321,0.1325,0.1331,0.1331,0.1339,0.1341,0.1346,0.135,0.135,0.1357,0.136,0.136,0.1354,0.1354,0.1353,0.1352,0.1355,0,0,0,0,0,0.128,0.1285,0.1295,0.1301,0.1304,0.1312,0.1315,0.132,0.1327,0.1329,0.1336,0.1342,0.1347,0.1351,0.1357,0.1361,0.1363,0.1363,0.1362,0.1362,0.1362,0.1363,0.1363,0.1367,0.1367,0.1367,0,0,0.1279,0.1286,0.1289,0.1299,0.1305,0.131,0.1314,0.132,0.1323,0.133,0.1336,0.1341,0.1348,0.1353,0.1356,0.1357,0.1361,0.1362,0.1361,0.1362,0.1363,0.1363,0.1362,0.1367,0.1367,0.1367,0,0,0.1279,0.1286,0.129,0.1295,0.1303,0.1308,0.1309,0.1318,0.1322,0.1328,0.1332,0.1336,0.1346,0.1351,0.1354,0.1354,0.1358,0.1356,0.1354,0.1355,0.1354,0.1354,0.1353,0.1353,0.1356,0.1356,0.1356,0,0.1277,0.1286,0.1292,0.1297,0.1301,0.1307,0.1311,0.1315,0.1325,0.1327,0.1328,0.1339,0.1345,0.1351,0.135,0.1353,0.1354,0.1355,0.1354,0.1354,0.1354,0.1353,0.1353,0.1356,0.1356,0.1356,0.1356,0,0.1282,0.1287,0.129,0.1298,0.1302,0.1307,0.1313,0.1316,0.132,0.1324,0.1329,0.1336,0.1342,0.1344,0.1348,0.135,0.135,0.1353,0.1355,0.1353,0.1352,0.1352,0.1355,0.1356,0.1356,0.1356,0,0,0.128,0.1291,0.1292,0.1295,0.1303,0.1307,0.1311,0.1317,0.1319,0.1325,0.1328,0.1335,0.1337,0.1341,0.1345,0.1346,0.1344,0.1349,0.1349,0.1347,0.1345,0.1343,0.1343,0.1347,0.1347,0.1347,0.1344,0,0.1282,0.1289,0.1294,0.13,0.1304,0.1309,0.1312,0.1317,0.1321,0.1325,0.1329,0.1333,0.1336,0.1338,0.134,0.1344,0.1344,0.1345,0.1349,0.1349,0.1346,0.1342,0.134,0.1338,0.1344,0.1344,0.1344,0,0.1284,0.1289,0.1295,0.1301,0.1303,0.1306,0.1311,0.1315,0.132,0.1322,0.1326,0.133,0.1333,0.1335,0.1339,0.134,0.1341,0.1344,0.1344,0.1344,0.1346,0.1342,0.1337,0.1337,0.1344,0.1344,0.1344,0,0.1281,0.1289,0.1293,0.1296,0.1304,0.1305,0.1308,0.1314,0.1316,0.132,0.1322,0.1327,0.1329,0.1332,0.1337,0.1338,0.134,0.1343,0.1342,0.1341,0.1342,0.1342,0.1337,0.1344,0.1344,0.1344,0.1344,0,0.1282,0.1285,0.1292,0.1294,0.1297,0.1303,0.1305,0.1309,0.1313,0.1315,0.132,0.1322,0.1328,0.1331,0.1335,0.1337,0.1338,0.134,0.1341,0.1339,0.1339,0.134,0.134,0.1344,0.1344,0.1344,0.1344,0,0.1279,0.1284,0.1289,0.1295,0.1296,0.1298,0.1303,0.1305,0.1309,0.1312,0.1313,0.1319,0.1322,0.1327,0.1332,0.1334,0.1335,0.1337,0.1333,0.1334,0.1332,0.1332,0.1328,0.1327,0.1335,0.1335,0.1335,0,0.1279,0.1282,0.1288,0.1289,0.1292,0.1296,0.1298,0.1303,0.1305,0.131,0.1311,0.1315,0.1318,0.1322,0.1327,0.133,0.1331,0.133,0.1332,0.133,0.133,0.133,0.133,0.1329,0.1329,0.1329,0.1329,0,0.1278,0.128,0.1284,0.1287,0.129,0.1293,0.1296,0.1297,0.1303,0.1305,0.1308,0.131,0.1315,0.1318,0.1321,0.1324,0.1327,0.1328,0.1328,0.1326,0.1323,0.1324,0.1331,0.1328,0.1328,0.1328,0.1328,0.1328,0.1277,0.1278,0.1282,0.1285,0.1288,0.129,0.1292,0.1295,0.1298,0.1302,0.1304,0.1307,0.131,0.1316,0.1318,0.132,0.1321,0.1321,0.1321,0.1321,0.132,0.1323,0.132,0.132,0.132,0.132,0.132,0,0.1275,0.1277,0.128,0.1284,0.1286,0.1288,0.1292,0.1293,0.1295,0.1298,0.1301,0.1303,0.1306,0.131,0.1312,0.1313,0.1314,0.1313,0.1313,0.1314,0.1319,0.1318,0.1312,0.1312,0.1312,0.1312,0.1312,0.1312,0.1274,0.1277,0.1278,0.1282,0.1284,0.1286,0.1288,0.129,0.1292,0.1295,0.1297,0.1299,0.1302,0.1305,0.1307,0.1308,0.1308,0.1307,0.1308,0.1313,0.1313,0.1314,0.1314,0.1307,0.1307,0.1303,0.1303,0.1303]}]]